Archival Weather

Chicago O'Hare International

Chicago, Illinois (KORD)

Report from: Friday, September 23, 2022 3:51 AM CDT
Current time: Monday, December 11, 2023 9:44 AM CST

Current weather – Weather history – Daily summaries
Weather forecast

Temperature10.6°C (51.1°F)
Dew point6.1°C (43.0°F)
Winds 4 kts (2.1 m/s, 4.6 mph) North-Northeast (20°)
Visibility10 mi. (16.1 km)
Clouds Scattered clouds 3,800 ft. (1,158 m)
Scattered clouds 25,000 ft. (7,620 m)
Altimeter30.23 in.Hg (1024 mB)
Relative humidity74 %
Density altitude-745 ft. (-227 m)
Sea-level pressure102.4 kPa (1024 mB, 30.23 in.Hg)
Remarks Automated weather observing station with precipitation discriminator
Pressure rising, then falling
Flight conditions Visual Meteorological Conditions
Raw dataKORD 230851Z 02004KT 10SM SCT038 SCT250 11/06 A3023 RMK AO2 SLP238 T01060061 50001
An error has occurred. This application may no longer respond until reloaded. Reload 🗙